ContactaLinksHome
    
DADES METEOROLÒGIQUES DE LES ÚLTIMES 24 HORES
 

Taire  Temperatura de l'aire  (ºC)
HumitatR  Humitat relativa de l'aire (%)
Pluja  Litres de pluja per metre cuadrat caiguts en 10 minuts (l/m²)
VelVent  Velocitat mitjana del vent (m/s)
DirVent  Direcció del vent  (º)
RadSolar  Intensitat de Radiació solar (w/m²)
PressAtm  Pressió atmosfèrica (mb)
  ***Dades sense verificar
DataTaireHumitatRPlujaVelVentDirVentRadSolarPressAtm
16/01/2017 17:10:0011.1620,03.714701013
16/01/2017 17:00:0011.0610,04.014501013
16/01/2017 16:50:0011.0610,04.214431013
16/01/2017 16:40:0011.0620,04.8132151013
16/01/2017 16:30:0011.0610,04.2136331013
16/01/2017 16:20:0010.9610,04.6117551013
16/01/2017 16:10:0010.9620,04.4128801013
16/01/2017 16:00:0011.0620,04.71121071013
16/01/2017 15:50:0010.9620,04.31121331013
16/01/2017 15:40:0010.9620,04.51231561013
16/01/2017 15:30:0010.8610,04.51201801013
16/01/2017 15:20:0010.9610,04.81052011013
16/01/2017 15:10:0010.9590,05.01122221013
16/01/2017 15:00:0010.8570,04.81142421013
16/01/2017 14:50:0010.8550,04.31092631013
16/01/2017 14:40:0010.8540,03.81142421013
16/01/2017 14:30:0010.8540,03.31092611013
16/01/2017 14:20:0010.7520,03.41083171014
16/01/2017 14:10:0010.7520,02.91133371014
16/01/2017 14:00:0010.7510,02.51103501014
16/01/2017 13:50:0010.6510,02.71143711014
16/01/2017 13:40:0010.5520,03.11053901014
16/01/2017 13:30:0010.5510,03.4974051014
16/01/2017 13:20:0010.4530,03.2964171014
16/01/2017 13:10:0010.4540,03.4944281014
16/01/2017 13:00:0010.3550,03.61014361014
16/01/2017 12:50:0010.6550,03.2874441014
16/01/2017 12:40:0010.6540,03.5784511014
16/01/2017 12:30:0010.9540,03.41014541015
16/01/2017 12:20:0010.7520,03.3954611015
16/01/2017 12:10:0010.8480,02.61024631015
16/01/2017 12:00:0011.5480,02.51014631015
16/01/2017 11:50:0011.4410,01.53404521015
16/01/2017 11:40:0011.1410,02.13494551015
16/01/2017 11:30:0010.8420,02.43264621015
16/01/2017 11:20:0010.4450,02.43454521015
16/01/2017 11:10:0010.3450,02.13094481016
16/01/2017 11:00:0010.0460,02.62914431016
16/01/2017 10:50:009.8480,02.63144331016
16/01/2017 10:40:009.8480,03.52754231016
16/01/2017 10:30:009.9470,02.12764101016
16/01/2017 10:20:009.5490,02.13223991016
16/01/2017 10:10:009.0510,03.23393861016
16/01/2017 10:00:008.7530,03.03193641017
16/01/2017 9:50:008.3530,03.12873541017
16/01/2017 9:40:008.0530,03.73083361017
16/01/2017 9:30:008.3520,03.43223151017
16/01/2017 9:20:008.2510,02.92922951017
16/01/2017 9:10:008.0530,02.23332721017
16/01/2017 9:00:007.9530,01.72972491017
16/01/2017 8:50:007.5540,02.13432251017
16/01/2017 8:40:007.2540,01.73142011017
16/01/2017 8:30:006.7540,03.33271751017
16/01/2017 8:20:006.5540,04.13181491017
16/01/2017 8:10:006.0560,04.13181221016
16/01/2017 8:00:006.1550,04.3321951016
16/01/2017 7:50:006.1530,04.9313701016
16/01/2017 7:40:006.4520,05.0315241016
16/01/2017 7:30:006.4500,04.730761016
16/01/2017 7:20:006.5500,04.731131016
16/01/2017 7:10:006.3510,04.131601017
16/01/2017 7:00:006.3520,03.333401017
16/01/2017 6:50:006.4510,03.232001017
16/01/2017 6:40:006.4500,03.332101017
16/01/2017 6:30:006.1500,03.532501017
16/01/2017 6:20:006.1510,03.933201017
16/01/2017 6:10:006.1520,04.232801017
16/01/2017 6:00:006.1510,05.032901017
16/01/2017 5:50:006.4500,05.231501017
16/01/2017 5:40:007.1470,03.531201017
16/01/2017 5:30:007.0440,04.231201017
16/01/2017 5:20:006.7470,03.931701017
16/01/2017 5:10:006.4490,04.232801017
16/01/2017 5:00:006.3480,04.630801017
16/01/2017 4:50:006.6480,04.732401017
16/01/2017 4:40:007.0460,04.931701017
16/01/2017 4:30:007.1430,03.932201017
16/01/2017 4:20:007.2430,03.131901017
16/01/2017 4:10:007.1420,03.631101017
16/01/2017 4:00:007.1420,03.931501017
16/01/2017 3:50:007.0430,03.830601017
16/01/2017 3:40:007.0410,04.431801017
16/01/2017 3:30:006.9420,04.331701017
16/01/2017 3:20:006.9420,03.932801018
16/01/2017 3:10:006.7420,04.731701018
16/01/2017 3:00:006.5430,04.331401018
16/01/2017 2:50:006.6440,05.432201018
16/01/2017 2:40:006.9450,05.231301018
16/01/2017 2:30:007.2440,04.931101018
16/01/2017 2:20:007.2440,04.031301018
16/01/2017 2:10:007.1450,04.631301018
16/01/2017 2:00:007.2460,04.833401018
16/01/2017 1:50:007.4450,04.932701018
16/01/2017 1:40:007.3450,05.031801018
16/01/2017 1:30:007.4450,04.432301018
16/01/2017 1:20:007.5460,04.831901018
16/01/2017 1:10:007.6460,04.932901018
16/01/2017 1:00:007.8450,05.133201018
16/01/2017 0:50:008.0440,0 2101018
16/01/2017 0:40:008.3430,04.532801018
16/01/2017 0:30:008.4420,04.532901018
16/01/2017 0:20:008.5400,04.432501018
16/01/2017 0:10:008.6390,03.732601019
16/01/2017 0:00:008.8380,03.333301019
15/01/2017 23:50:009.0370,03.432701019
15/01/2017 23:40:008.9370,04.732601019
15/01/2017 23:30:008.9410,02.834901019
15/01/2017 23:20:008.8410,00.933201019
15/01/2017 23:10:009.0390,02.334301019
15/01/2017 23:00:008.9390,01.032401019
15/01/2017 22:50:008.9390,00.427901019
15/01/2017 22:40:008.8370,01.231701019
15/01/2017 22:30:009.1370,01.731801019
15/01/2017 22:20:009.3390,00.932001019
15/01/2017 22:10:009.1390,00.535701020
15/01/2017 22:00:009.2360,01.633301020
15/01/2017 21:50:009.3350,02.032501020
15/01/2017 21:40:009.2340,01.932801020
15/01/2017 21:30:009.3350,02.032801020
15/01/2017 21:20:0010.0360,01.431901020
15/01/2017 21:10:0010.0350,01.129401020
15/01/2017 21:00:009.7350,00.824001020
15/01/2017 20:50:009.6310,02.133201020
15/01/2017 20:40:009.6320,02.033401020
15/01/2017 20:30:0010.3320,02.533501020
15/01/2017 20:20:009.9310,02.134101020
15/01/2017 20:10:009.6310,02.433101020
15/01/2017 20:00:0010.1320,02.032901020
15/01/2017 19:50:0010.4330,00.535501020
15/01/2017 19:40:009.9300,01.035001020
15/01/2017 19:30:009.8310,01.035101020
15/01/2017 19:20:0010.6300,01.335901020
15/01/2017 19:10:0010.6290,01.0001020
15/01/2017 19:00:0010.7290,00.929701020
15/01/2017 18:50:0011.2260,01.431501020
15/01/2017 18:40:0011.5240,01.729201020
15/01/2017 18:30:0011.4240,02.131701020
15/01/2017 18:20:0011.4240,02.229001020
15/01/2017 18:10:0011.5240,02.129101020
15/01/2017 18:00:0011.6250,02.229301020
15/01/2017 17:50:0011.6250,01.932501019
15/01/2017 17:40:0011.6230,02.832301019
15/01/2017 17:30:0011.6250,01.833001019
15/01/2017 17:20:0011.7230,02.329701019

ÚLTIMES FOTOS WEBCAM
Imatges del Pont
ÚLTIMES DADES

16/01/2017  
18:10h Local  (17:10 GMT)
 
 Velocitat mitjana del Vent
   3,7 m/s
 Direcció del Vent
   147º
 Humitat Relativa
   62 %
 Temperatura Aparent
   11,1 ºC
 Pluja Acumulada
   0,0 l/m²
      
 Temperatura de l'aigua    N/A
 Alçada d'ona    0,81 m
 Direcció d'ona    97 º
 Velocitat del corrent    N/A
 Direcció del corrent    N/A